Lancaster, OH

7:02 PM EDT on July 27, 2017 (GMT -0400)
Fairfield County

Weather History for KLHQ - September, 2012

Change the Weather History Date:

Monday, September 24, 2012

  Actual Average Record
Temperature  
Mean Temperature 48 °F -  
Max Temperature 66 °F 70 °F 91 °F (2007)
Min Temperature 32 °F 46 °F 32 °F (1983)
Degree Days  
Heating Degree Days 17    
Moisture  
Dew Point 34 °F    
Average Humidity 68    
Maximum Humidity 96    
Minimum Humidity 32    
Precipitation  
Precipitation 0.00 in - - ()
Sea Level Pressure  
Sea Level Pressure 30.21 in    
Wind  
Wind Speed 2 mph (SSW)    
Max Wind Speed 13 mph    
Max Gust Speed 18 mph    
Visibility 9 miles    
Events      
Averages and records for this station are not official NWS values.
T = Trace of Precipitation, MM = Missing Value Source: NWS Daily Summary

Daily Weather History Graph

Daily Weather History Graph

Search for Another Location

Airport or City:

Trip Planner

Search our weather history database for the weather conditions in past years. The results will help you decide how hot, cold, wet, or windy it might be!

Date:

Astronomy

Sep. 24, 2012 Rise Set
Actual Time 7:20 AM EDT 7:23 PM EDT
Civil Twilight 6:53 AM EDT 7:50 PM EDT
Nautical Twilight 6:22 AM EDT 8:21 PM EDT
Astronomical Twilight 5:50 AM EDT 8:53 PM EDT
Moon 4:08 PM EDT (9/24) 1:36 AM EDT (9/24)
Length of Visible Light 12h 56m
Length of Day
12h 03m
Waxing Gibbous, 70% of the Moon is Illuminated
Sep 24
Waxing Gibbous
Sep 29
Full
Oct 8
Last Quarter
Oct 15
New
Oct 21
First Quarter

Hourly Weather History & Observations

Time (EDT) Temp. Windchill Dew Point Humidity Pressure Visibility Wind Dir Wind Speed Gust Speed Precip Events Conditions
12:53 AM 39.9 °F - 36.0 °F 86% 30.25 in 10.0 mi Calm Calm - N/A   Clear
1:53 AM 36.0 °F - 34.0 °F 93% 30.25 in 10.0 mi Calm Calm - N/A   Clear
2:53 AM 35.1 °F - 33.1 °F 92% 30.25 in 10.0 mi Calm Calm - N/A   Clear
3:53 AM 33.1 °F - 30.9 °F 92% 30.26 in 10.0 mi Calm Calm - N/A   Clear
4:53 AM 33.1 °F - 30.9 °F 92% 30.26 in 10.0 mi Calm Calm - N/A   Clear
5:53 AM 33.1 °F - 30.9 °F 92% 30.27 in 9.0 mi Calm Calm - N/A   Clear
6:53 AM 32.0 °F - 30.0 °F 92% 30.29 in 9.0 mi Calm Calm - N/A   Clear
7:13 AM 32.0 °F - 30.2 °F 93% 30.28 in 1.8 mi Calm Calm - N/A   Clear
7:17 AM 32.0 °F - 28.4 °F 87% 30.28 in 0.8 mi Calm Calm - N/A   Clear
7:53 AM 33.1 °F - 32.0 °F 96% 30.30 in 1.2 mi Calm Calm - N/A   Clear
7:55 AM 33.8 °F - 32.0 °F 93% 30.28 in 5.0 mi Calm Calm - N/A   Clear
8:53 AM 43.0 °F 41.3 °F 39.0 °F 86% 30.30 in 10.0 mi SSE 3.5 mph - N/A   Clear
9:53 AM 51.1 °F - 43.0 °F 74% 30.30 in 10.0 mi South 3.5 mph - N/A   Clear
10:53 AM 55.9 °F - 36.0 °F 47% 30.29 in 10.0 mi Variable 3.5 mph - N/A   Clear
11:53 AM 59.0 °F - 37.0 °F 44% 30.27 in 10.0 mi Variable 5.8 mph - N/A   Clear
12:53 PM 61.0 °F - 35.1 °F 38% 30.25 in 10.0 mi Variable 4.6 mph - N/A   Clear
1:53 PM 63.0 °F - 34.0 °F 34% 30.22 in 10.0 mi SW 10.4 mph 16.1 mph N/A   Clear
2:53 PM 64.0 °F - 36.0 °F 35% 30.19 in 10.0 mi WSW 8.1 mph - N/A   Clear
3:53 PM 64.9 °F - 35.1 °F 33% 30.15 in 10.0 mi SW 10.4 mph - N/A   Clear
4:53 PM 64.9 °F - 34.0 °F 32% 30.12 in 10.0 mi SW 12.7 mph 18.4 mph N/A   Clear
5:53 PM 64.9 °F - 34.0 °F 32% 30.11 in 10.0 mi SSW 10.4 mph 18.4 mph N/A   Clear
6:53 PM 63.0 °F - 34.0 °F 34% 30.09 in 10.0 mi SSW 8.1 mph - N/A   Clear
7:53 PM 57.0 °F - 34.0 °F 42% 30.10 in 10.0 mi South 4.6 mph - N/A   Clear
8:53 PM 46.0 °F 44.8 °F 36.0 °F 68% 30.10 in 10.0 mi South 3.5 mph - N/A   Clear
9:53 PM 43.0 °F - 36.0 °F 76% 30.11 in 10.0 mi Calm Calm - N/A   Clear
10:53 PM 42.1 °F 40.2 °F 36.0 °F 79% 30.11 in 10.0 mi SSE 3.5 mph - N/A   Clear
11:53 PM 41.0 °F - 36.0 °F 82% 30.10 in 10.0 mi Calm Calm - N/A   Clear